888  
ASUS41 KOKX 241908  
RWROKX  
 
REGIONAL WEATHER ROUNDUP  
NATIONAL WEATHER SERVICE NEW YORK NY  
200 PM EST TUE JAN 24 2017  
 
NOTE: "FAIR" INDICATES FEW OR NO CLOUDS BELOW 12,000 FEET WITH NO  
SIGNIFICANT WEATHER AND/OR S TO VISIBILITY
.  
 
NYZ071-072-176-178-NJZ106-104-242000-  
NEW YORK CITY METRO AREA  
 
CITY SKY/WX TMP DP RH WIND PRES REMARKS
 
CENTRAL PARK LGT RAIN 36 35 96 NW8 29.34R FOG WCI 30  
WALL ST HELIPT RAIN 38 36 92 VRB6 29.33R FOG WCI 33  
LAGUARDIA APRT CLOUDY 39 34 82 N22 29.31S HAZE WCI 29  
KENNEDY INTL LGT RAIN 38 36 92 N21G30 29.30R FOG WCI 28  
BREEZY POINT N/A 36 N/A N/A NW15G22 N/A WCI 26  
NEWARK/LIBERTY RAIN 38 35 89 NW18G26 29.34R FOG WCI 28  
TETERBORO NOT AVBL  

 
 
NYZ177-179-078>081-242000-  
LONG ISLAND NEW YORK  
 
CITY SKY/WX TMP DP RH WIND PRES REMARKS
 
JONES BEACH N/A 37 N/A N/A N21G29 N/A WCI 27  
MATINECOCK PT NOT AVBL  
FARMINGDALE CLOUDY 38 36 92 N21G28 29.26R WCI 28  
MACARTHUR/ISP LGT RAIN 38 37 97 N23G33 29.21F FOG WCI 27  
SHIRLEY LGT RAIN 39 38 96 N22 29.21F FOG WCI 29  
WESTHAMPTON CLOUDY 41 39 93 N18G26 29.20F  
SOUTHAMPTON NOT AVBL  
BRIDGEHAMPTON NOT AVBL  
EAST HAMPTON CLOUDY 42 41 93 N10G20 29.19S FOG  
MONTAUK N/A 45 42 89 N14G24 29.19F  

 
 
NYZ052-065-067-242000-  
HUDSON VALLEY  
 
CITY SKY/WX TMP DP RH WIND PRES REMARKS
 
WHITE PLAINS DRZL/FOG 36 34 92 N16G24 29.28S VSB 3/4 WCI 26  
NEWBURGH DRIZZLE 36 34 93 N10G18 N/A FOG WCI 28  
MONTGOMERY LGT RAIN 37 34 89 N5 29.37R WCI 33  
POUGHKEEPSIE CLOUDY 35 31 85 N10G23 29.35F WCI 27  
ALBANY LGTSLEET 34 31 88 N12 29.45F FOG WCI 25  

 
 
NJZ001-105-106-008-010-013-015-019>022-104-242000-  
NEW JERSEY  
 
CITY SKY/WX TMP DP RH WIND PRES REMARKS
 
NEWARK/LIBERTY RAIN 38 35 89 NW18G26 29.34R FOG WCI 28  
TETERBORO NOT AVBL  
CALDWELL RAIN 37 34 89 N6 29.36S FOG WCI 32  
SOMERVILLE LGT RAIN 39 35 86 N10 29.35S FOG WCI 32  
LINDEN NOT AVBL  
SUSSEX LGT RAIN 37 35 92 N7 29.36F FOG WCI 32  
ANDOVER N/A 36 33 89 N7G17 29.37F WCI 30  
TRENTON CLOUDY 41 36 82 NW13G21 29.35S  
MILLVILLE CLOUDY 43 38 82 NW14G20 29.38S  
ATLANTIC CITY CLOUDY 41 37 86 NW20G26 29.34S  
WRIGHTSTOWN RAIN 39 37 93 NW13G22 29.33R WCI 31  
TOMS RIVER LGT RAIN 38 36 92 NW14 29.33R FOG WCI 30  
BELMAR LGT RAIN 37 36 96 NW15G28 29.32R WCI 28  

 
 
PAZ047>061-062-071-242000-  
EASTERN PENNSYLVANIA  
 
CITY SKY/WX TMP DP RH WIND PRES REMARKS
 
PHILADELPHIA CLOUDY 46 35 65 NW17 29.39S  
ALLENTOWN CLOUDY 42 33 70 NW14 29.40S  
SCRANTON LGT RAIN 37 32 82 NW14 29.44R WCI 28  

 
 
CTZ002-004>006-009-010-012-RIZ004-006-007-MAZ004-011-015-242000-  
SOUTHERN NEW ENGLAND  
IN CT  
 
CITY SKY/WX TMP DP RH WIND PRES REMARKS
 
BRADLEY INTL LGT RAIN 36 30 79 N17G25 29.31F WCI 26  
HARTFORD LGT RAIN 37 32 82 N16G24 29.30F WCI 28  
DANBURY LGT RAIN 36 33 89 N10 29.31S FOG WCI 28  
WTRBURY/OXFORD CLOUDY 36 28 75 NE17G30 29.27R WCI 25  
BRIDGEPORT CLOUDY 40 34 79 N14G23 29.27S WCI 32  
MERIDEN CLOUDY 38 31 76 N14G20 29.28S WCI 30  
NEW HAVEN CLOUDY 39 34 82 N22G31 29.22F WCI 29  
CHESTER MIX PCPN 39 36 87 N16G23 29.23F WCI 30  
GROTON LGT RAIN 44 40 85 N24G30 29.19S  
WILIMANTIC LGT RAIN 38 34 85 NE14G23 29.28F FOG WCI 30  
 
IN RI  
 
CITY SKY/WX TMP DP RH WIND PRES REMARKS
 
PROVIDENCE LGT RAIN 44 40 85 N26G37 29.24F FOG  
BLOCK ISLAND NOT AVBL  
WESTERLY CLOUDY 45 40 82 N15G26 29.21S  
IN MA  
 
CITY SKY/WX TMP DP RH WIND PRES REMARKS
 
BOSTON HVY RAIN 39 38 96 N25G32 29.31F FOG WCI 28  
WORCESTER FRZ RAIN 30 29 96 N18G36 29.29F FOG WCI 18  
WESTFIELD CLOUDY 35 30 82 N18G26 29.34F WCI 24  
PROVINCETOWN LGT RAIN 46 46 100 N13 29.23F VSB 3/4  
NANTUCKET FOG 52 50 93 E14 29.15F VSB 1  

 
 
ANZ330-335-338-340-345-350-353-355-242000-  
COASTAL MARINE OBSERVATIONS  
 
 
STATION/POSITION TIME SKY/WX TEMP WIND PRES VSBY WAVE
 
AIR SEA DIR/SP/G HT/PER  
(UTC) (F) (DEG/KT/KT) (MB) (MI) (FT/S)  
NY HARB ENTRANCE 1750 38 42 330/ 21/ 25 990.6 9/11  
20 S FIRE ISLAND 1850 40 46 350/ 23/ 27 988.8 11/11  
GREAT SOUTH BAY NOT AVBL  
23 SSW MONTAUK P 1750 44 46 20/ 27/ 33 987.3 10/11  
15 E BARNEGAT LI 1830 45 N/A 12/11  
HUDSON CANYON 1750 50 51 984.9 14/11  
KINGS POINT 1836 39 N/A  
EXECUTION ROCKS 1845 38 330/ 14/ 17 N/A  
CENTRAL LI SOUND 1815 41 20/ 17/ 23 N/A 4/ 6  
EASTERN LI SOUND NOT AVBL  
ROBBINS REEF 1848 37 330/ 17/ 24 993.0  

 
 
>>>>>>>>>>>>>>>>>>>>>>>>>>>> KEY <<<<<<<<<<<<<<<<<<<<<<<<<<<  
> <  
> SKY/WX - SKY CONDITION/PRESENT WEATHER <  
> TMP - TEMPERATURE IN FAHRENHEIT <  
> DP - DEW POINT IN FAHRENHEIT <  
> RH - RELATIVE HUMIDITY IN PERCENT <  
> WIND - DIRECTION (FROM) AND SPEED IN MPH <  
> PRES - MEAN SEA LEVEL PRESSURE (INCHES OF HG) <  
> WCI - WIND CHILL INDEX <  
> VSB - VISIBILITY IN MILES <  
> HX - HEAT INDEX <  
> TC - TEMPERATURE IN CELSIUS <  
> VRB - VARIABLE WIND DIRECTION <  
> <  
>>>>>>>>>>>>>>>>>>>>>>>>>>>> KEY <<<<<<<<<<<<<<<<<<<<<<<<<<<  
 
 
CLICK HERE TO GO TO PREVIOUS BULLETINS.

The Nexlab NY Page
The Nexlab NJ Page
The Nexlab CT Page Main Text Page